Year,Month,Day,Hour,Minute,Value (Times are PST for windspeed in km/hr)
2007,07,15,00,00,1.20
2007,07,15,00,01,1.30
2007,07,15,00,02,0.40
2007,07,15,00,03,0.00
2007,07,15,00,04,0.00
2007,07,15,00,05,0.60
2007,07,15,00,06,0.00
2007,07,15,00,07,0.20
2007,07,15,00,08,0.30
2007,07,15,00,09,0.00
2007,07,15,00,10,0.10
2007,07,15,00,11,0.00
2007,07,15,00,12,0.10
2007,07,15,01,02,0.00
2007,07,15,01,03,0.00
2007,07,15,01,04,0.00
2007,07,15,01,05,0.00
2007,07,15,01,06,0.00
2007,07,15,01,07,0.00
2007,07,15,01,08,0.00
2007,07,15,01,09,0.00
2007,07,15,01,10,0.00
2007,07,15,01,11,0.00
2007,07,15,01,12,0.00
2007,07,15,01,13,0.00
2007,07,15,01,14,0.00
2007,07,15,01,15,0.00
2007,07,15,01,16,0.00
2007,07,15,01,17,0.00
2007,07,15,01,18,0.00
2007,07,15,01,19,0.00
2007,07,15,01,20,0.00
2007,07,15,01,21,0.00
2007,07,15,01,22,0.00
2007,07,15,01,23,0.00
2007,07,15,01,24,0.00
2007,07,15,01,25,0.00
2007,07,15,01,26,0.00
2007,07,15,01,27,0.20
2007,07,15,01,28,1.10
2007,07,15,01,29,0.80
2007,07,15,01,30,0.00
2007,07,15,01,31,0.00
2007,07,15,01,32,0.00
2007,07,15,01,33,0.00
2007,07,15,01,34,0.00
2007,07,15,01,35,0.00
2007,07,15,01,36,0.00
2007,07,15,01,37,0.00
2007,07,15,01,38,0.40
2007,07,15,01,39,1.60
2007,07,15,01,40,0.90
2007,07,15,01,41,0.00
2007,07,15,01,42,0.00
2007,07,15,01,43,0.00
2007,07,15,01,44,0.00
2007,07,15,01,45,0.00
2007,07,15,01,46,0.00
2007,07,15,01,47,0.00
2007,07,15,01,48,0.00
2007,07,15,01,49,0.00
2007,07,15,01,50,0.00
2007,07,15,01,51,0.00
2007,07,15,01,52,0.00
2007,07,15,01,53,0.00
2007,07,15,01,54,0.00
2007,07,15,01,55,0.90
2007,07,15,01,56,0.10
2007,07,15,01,57,0.00
2007,07,15,01,58,2.30
2007,07,15,01,59,5.10
2007,07,15,02,00,2.10
2007,07,15,02,01,0.40
2007,07,15,02,02,0.20
2007,07,15,02,03,0.00
2007,07,15,02,04,0.00
2007,07,15,02,05,0.00
2007,07,15,02,06,0.00
2007,07,15,02,07,0.00
2007,07,15,02,08,0.00
2007,07,15,02,09,0.00
2007,07,15,02,10,0.00
2007,07,15,02,11,0.00
2007,07,15,02,12,0.00
2007,07,15,02,13,0.00
2007,07,15,02,14,0.00
2007,07,15,02,15,0.00
2007,07,15,02,16,0.00
2007,07,15,02,17,0.00
2007,07,15,02,18,0.00
2007,07,15,02,19,0.00
2007,07,15,02,20,0.00
2007,07,15,02,21,0.00
2007,07,15,02,22,0.00
2007,07,15,02,23,0.00
2007,07,15,02,24,0.00
2007,07,15,02,25,0.00
2007,07,15,02,26,0.00
2007,07,15,02,27,0.00
2007,07,15,02,28,0.20
2007,07,15,02,29,0.10
2007,07,15,02,30,0.00
2007,07,15,02,31,0.00
2007,07,15,02,32,0.00
2007,07,15,02,33,0.00
2007,07,15,02,34,0.00
2007,07,15,02,35,0.00
2007,07,15,02,36,0.00
2007,07,15,02,37,0.00
2007,07,15,02,38,0.00
2007,07,15,02,39,0.00
2007,07,15,02,40,0.00
2007,07,15,02,41,0.00
2007,07,15,02,42,0.00
2007,07,15,02,43,0.00
2007,07,15,02,44,0.00
2007,07,15,02,45,0.00
2007,07,15,02,46,0.00
2007,07,15,02,47,0.00
2007,07,15,02,48,0.00
2007,07,15,02,49,0.00
2007,07,15,02,50,0.00
2007,07,15,02,51,0.00
2007,07,15,02,52,0.00
2007,07,15,02,53,0.00
2007,07,15,02,54,0.00
2007,07,15,02,55,0.00
2007,07,15,02,56,0.00
2007,07,15,02,57,0.00
2007,07,15,02,58,0.00
2007,07,15,02,59,0.00
2007,07,15,03,00,0.00
2007,07,15,03,01,0.00
2007,07,15,03,02,0.00
2007,07,15,03,03,0.00
2007,07,15,03,04,0.00
2007,07,15,03,05,0.00
2007,07,15,03,06,0.00
2007,07,15,03,07,0.00
2007,07,15,03,08,0.00
2007,07,15,03,09,0.00
2007,07,15,03,10,0.00
2007,07,15,03,11,0.00
2007,07,15,03,12,0.00
2007,07,15,03,13,0.00
2007,07,15,03,14,0.00
2007,07,15,03,15,0.00
2007,07,15,03,16,0.00
2007,07,15,03,17,0.00
2007,07,15,03,18,0.00
2007,07,15,03,19,0.00
2007,07,15,03,20,0.00
2007,07,15,03,21,0.00
2007,07,15,03,22,0.00
2007,07,15,03,23,0.00
2007,07,15,03,24,0.00
2007,07,15,03,25,0.00
2007,07,15,03,26,0.00
2007,07,15,03,27,0.00
2007,07,15,03,28,0.00
2007,07,15,03,29,0.00
2007,07,15,03,30,0.00
2007,07,15,03,31,0.00
2007,07,15,03,32,0.00
2007,07,15,03,33,0.00
2007,07,15,03,34,0.00
2007,07,15,03,35,0.00
2007,07,15,03,36,0.00
2007,07,15,03,37,0.00
2007,07,15,03,38,0.00
2007,07,15,03,39,0.00
2007,07,15,03,40,0.00
2007,07,15,03,41,0.00
2007,07,15,03,42,0.10
2007,07,15,03,43,0.00
2007,07,15,03,44,0.00
2007,07,15,03,45,0.00
2007,07,15,03,46,0.00
2007,07,15,03,47,0.00
2007,07,15,03,48,0.20
2007,07,15,03,49,0.00
2007,07,15,03,50,0.20
2007,07,15,03,51,1.90
2007,07,15,03,52,1.30
2007,07,15,03,53,0.00
2007,07,15,03,54,0.00
2007,07,15,03,55,0.10
2007,07,15,03,56,0.30
2007,07,15,03,57,0.00
2007,07,15,03,58,0.00
2007,07,15,03,59,0.00
2007,07,15,04,00,0.00
2007,07,15,04,01,0.00
2007,07,15,04,02,0.00
2007,07,15,04,03,0.00
2007,07,15,04,04,0.00
2007,07,15,04,05,0.00
2007,07,15,04,06,0.00
2007,07,15,04,07,0.00
2007,07,15,04,08,0.00
2007,07,15,04,09,0.60
2007,07,15,04,10,1.20
2007,07,15,04,11,0.20
2007,07,15,04,12,0.00
2007,07,15,04,13,0.00
2007,07,15,04,14,0.00
2007,07,15,04,15,0.00
2007,07,15,04,16,0.00
2007,07,15,04,17,0.00
2007,07,15,04,18,0.00
2007,07,15,04,19,0.00
2007,07,15,04,20,0.00
2007,07,15,04,21,0.00
2007,07,15,04,22,0.00
2007,07,15,04,23,0.00
2007,07,15,04,24,0.00
2007,07,15,04,25,0.00
2007,07,15,04,26,0.00
2007,07,15,04,27,0.00
2007,07,15,04,28,0.00
2007,07,15,04,29,0.00
2007,07,15,04,30,0.00
2007,07,15,04,31,0.00
2007,07,15,04,32,0.10
2007,07,15,04,33,0.00
2007,07,15,04,34,0.30
2007,07,15,04,35,2.00
2007,07,15,04,36,0.00
2007,07,15,04,37,0.10
2007,07,15,04,38,0.00
2007,07,15,04,39,0.00
2007,07,15,04,40,0.00
2007,07,15,04,41,0.20
2007,07,15,04,42,0.80
2007,07,15,04,43,0.00
2007,07,15,04,44,0.00
2007,07,15,04,45,0.00
2007,07,15,04,46,0.00
2007,07,15,04,47,0.00
2007,07,15,04,48,0.00
2007,07,15,04,49,0.00
2007,07,15,04,50,0.00
2007,07,15,04,51,0.00
2007,07,15,04,52,0.10
2007,07,15,04,53,0.30
2007,07,15,04,54,0.00
2007,07,15,04,55,0.00
2007,07,15,04,56,0.00
2007,07,15,04,57,0.10
2007,07,15,04,58,0.00
2007,07,15,04,59,0.00
2007,07,15,05,00,0.00
2007,07,15,05,01,0.00
2007,07,15,05,02,0.10
2007,07,15,05,03,0.00
2007,07,15,05,04,0.00
2007,07,15,05,05,0.00
2007,07,15,05,06,0.00
2007,07,15,05,07,0.00
2007,07,15,05,08,0.00
2007,07,15,05,09,0.00
2007,07,15,05,10,0.00
2007,07,15,05,11,0.00
2007,07,15,05,12,0.60
2007,07,15,05,13,0.20
2007,07,15,05,14,0.00
2007,07,15,05,15,0.30
2007,07,15,05,16,0.30
2007,07,15,05,17,0.00
2007,07,15,05,18,0.00
2007,07,15,05,19,0.00
2007,07,15,05,20,0.00
2007,07,15,05,21,0.00
2007,07,15,05,22,0.00
2007,07,15,05,23,0.00
2007,07,15,05,24,0.00
2007,07,15,05,25,0.00
2007,07,15,05,26,0.00
2007,07,15,05,27,0.20
2007,07,15,05,28,0.00
2007,07,15,05,29,0.00
2007,07,15,05,30,0.10
2007,07,15,05,31,0.10
2007,07,15,05,32,0.20
2007,07,15,05,33,0.00
2007,07,15,05,34,0.00
2007,07,15,05,35,0.00
2007,07,15,05,36,0.00
2007,07,15,05,37,0.00
2007,07,15,05,38,0.00
2007,07,15,05,39,0.60
2007,07,15,05,40,0.10
2007,07,15,05,41,0.00
2007,07,15,05,42,0.20
2007,07,15,05,43,0.00
2007,07,15,05,44,0.00
2007,07,15,05,45,0.00
2007,07,15,05,46,0.00
2007,07,15,05,47,0.80
2007,07,15,05,48,0.50
2007,07,15,05,49,0.00
2007,07,15,05,50,0.00
2007,07,15,05,51,0.00
2007,07,15,05,52,0.00
2007,07,15,05,53,0.00
2007,07,15,05,54,0.00
2007,07,15,05,55,0.20
2007,07,15,05,56,0.00
2007,07,15,05,57,0.20
2007,07,15,05,58,1.10
2007,07,15,05,59,0.90
2007,07,15,06,00,0.00
2007,07,15,06,01,0.00
2007,07,15,06,02,0.00
2007,07,15,06,03,0.00
2007,07,15,06,04,1.90
2007,07,15,06,05,2.70
2007,07,15,06,06,3.50
2007,07,15,06,07,1.60
2007,07,15,06,08,0.00
2007,07,15,06,09,0.30
2007,07,15,06,10,0.80
2007,07,15,06,11,4.60
2007,07,15,06,12,1.50
2007,07,15,06,13,0.20
2007,07,15,06,14,0.00
2007,07,15,06,15,0.00
2007,07,15,06,16,0.00
2007,07,15,06,17,0.00
2007,07,15,06,18,1.30
2007,07,15,06,19,0.00
2007,07,15,06,20,0.20
2007,07,15,06,21,0.00
2007,07,15,06,22,0.00
2007,07,15,06,23,0.00
2007,07,15,06,24,1.30
2007,07,15,06,25,0.10
2007,07,15,06,26,0.00
2007,07,15,06,27,0.00
2007,07,15,06,28,0.00
2007,07,15,06,29,0.00
2007,07,15,06,30,0.10
2007,07,15,06,31,1.00
2007,07,15,06,32,0.00
2007,07,15,06,33,0.00
2007,07,15,06,34,0.10
2007,07,15,06,35,0.00
2007,07,15,06,36,0.00
2007,07,15,06,37,0.00
2007,07,15,06,38,0.00
2007,07,15,06,39,0.00
2007,07,15,06,40,0.00
2007,07,15,06,41,0.00
2007,07,15,06,42,0.20
2007,07,15,06,43,0.00
2007,07,15,06,44,0.10
2007,07,15,06,45,0.00
2007,07,15,06,46,0.10
2007,07,15,06,47,0.00
2007,07,15,06,48,0.00
2007,07,15,06,49,0.00
2007,07,15,06,50,0.00
2007,07,15,06,51,0.00
2007,07,15,06,52,0.00
2007,07,15,06,53,0.10
2007,07,15,06,54,0.00
2007,07,15,06,55,0.00
2007,07,15,06,56,0.00
2007,07,15,06,57,0.20
2007,07,15,06,58,0.10
2007,07,15,06,59,0.00
2007,07,15,07,00,0.00
2007,07,15,07,01,0.30
2007,07,15,07,02,0.00
2007,07,15,07,03,0.00
2007,07,15,07,04,0.00
2007,07,15,07,05,0.00
2007,07,15,07,06,0.00
2007,07,15,07,07,0.00
2007,07,15,07,08,0.00
2007,07,15,07,09,0.00
2007,07,15,07,10,0.00
2007,07,15,07,11,0.00
2007,07,15,07,12,0.00
2007,07,15,07,13,0.80
2007,07,15,07,14,0.00
2007,07,15,07,15,1.40
2007,07,15,07,16,1.30
2007,07,15,07,17,3.40
2007,07,15,07,18,1.40
2007,07,15,07,19,0.00
2007,07,15,07,20,1.30
2007,07,15,07,21,6.60
2007,07,15,07,22,6.00
2007,07,15,07,23,3.10
2007,07,15,07,24,0.20
2007,07,15,07,25,1.30
2007,07,15,07,26,3.50
2007,07,15,07,27,3.90
2007,07,15,07,28,3.90
2007,07,15,07,29,5.60
2007,07,15,07,30,8.20
2007,07,15,07,31,4.10
2007,07,15,07,32,2.60
2007,07,15,07,33,3.80
2007,07,15,07,34,3.00
2007,07,15,07,35,5.10
2007,07,15,07,36,4.00
2007,07,15,07,37,3.60
2007,07,15,07,38,5.80
2007,07,15,07,39,7.50
2007,07,15,07,40,4.10
2007,07,15,07,41,4.90
2007,07,15,07,42,4.70
2007,07,15,07,43,1.00
2007,07,15,07,44,0.60
2007,07,15,07,45,1.00
2007,07,15,07,46,1.60
2007,07,15,07,47,2.20
2007,07,15,07,48,4.80
2007,07,15,07,49,1.80
2007,07,15,07,50,7.60
2007,07,15,07,51,5.10
2007,07,15,07,52,4.20
2007,07,15,07,53,3.10
2007,07,15,07,54,3.90
2007,07,15,07,55,5.30
2007,07,15,07,56,5.40
2007,07,15,07,57,6.00
2007,07,15,07,58,7.40
2007,07,15,07,59,4.70
2007,07,15,08,00,3.90
2007,07,15,08,01,3.10
2007,07,15,08,02,2.80
2007,07,15,08,03,0.90
2007,07,15,08,04,0.00
2007,07,15,08,05,1.80
2007,07,15,08,06,3.50
2007,07,15,08,07,0.60
2007,07,15,08,08,3.50
2007,07,15,08,09,5.40
2007,07,15,08,10,2.40
2007,07,15,08,11,0.20
2007,07,15,08,12,2.40
2007,07,15,08,13,0.10
2007,07,15,08,14,2.60
2007,07,15,08,15,4.90
2007,07,15,08,16,4.00
2007,07,15,08,17,4.80
2007,07,15,08,18,2.00
2007,07,15,08,19,1.90
2007,07,15,08,20,4.40
2007,07,15,08,21,3.00
2007,07,15,08,22,2.00
2007,07,15,08,23,2.20
2007,07,15,08,24,5.80
2007,07,15,08,25,3.30
2007,07,15,08,26,3.80
2007,07,15,08,27,4.60
2007,07,15,08,28,0.50
2007,07,15,08,29,1.40
2007,07,15,08,30,1.30
2007,07,15,08,31,2.80
2007,07,15,08,32,2.30
2007,07,15,08,33,5.10
2007,07,15,08,34,4.30
2007,07,15,08,35,2.30
2007,07,15,08,36,1.70
2007,07,15,08,37,2.30
2007,07,15,08,38,1.00
2007,07,15,08,39,0.60
2007,07,15,08,40,0.00
2007,07,15,08,41,0.60
2007,07,15,08,42,0.80
2007,07,15,08,43,5.00
2007,07,15,08,44,4.70
2007,07,15,08,45,2.60
2007,07,15,08,46,1.10
2007,07,15,08,47,6.10
2007,07,15,08,48,6.40
2007,07,15,08,49,6.00
2007,07,15,08,50,1.70
2007,07,15,08,51,5.40
2007,07,15,08,52,4.10
2007,07,15,08,53,0.90
2007,07,15,08,54,1.70
2007,07,15,08,55,0.40
2007,07,15,08,56,1.00
2007,07,15,08,57,0.00
2007,07,15,08,58,0.50
2007,07,15,08,59,0.20
2007,07,15,09,00,1.70
2007,07,15,09,01,0.10
2007,07,15,09,02,0.80
2007,07,15,09,03,2.20
2007,07,15,09,04,6.50
2007,07,15,09,05,9.00
2007,07,15,09,06,10.70
2007,07,15,09,07,7.60
2007,07,15,09,08,5.10
2007,07,15,09,09,9.80
2007,07,15,09,10,10.50
2007,07,15,09,11,8.20
2007,07,15,09,12,6.90
2007,07,15,09,13,9.50
2007,07,15,09,14,12.20
2007,07,15,09,15,11.50
2007,07,15,09,16,9.20
2007,07,15,09,17,2.60
2007,07,15,09,18,7.30
2007,07,15,09,19,5.20
2007,07,15,09,20,6.20
2007,07,15,09,21,3.70
2007,07,15,09,22,5.30
2007,07,15,09,23,1.90
2007,07,15,09,24,3.50
2007,07,15,09,25,2.70
2007,07,15,09,26,2.40
2007,07,15,09,27,3.50
2007,07,15,09,28,2.70
2007,07,15,09,29,2.00
2007,07,15,09,30,0.00
2007,07,15,09,31,0.80
2007,07,15,09,32,0.90
2007,07,15,09,33,1.00
2007,07,15,09,34,1.40
2007,07,15,09,35,0.50
2007,07,15,09,36,3.10
2007,07,15,09,37,2.60
2007,07,15,09,38,2.10
2007,07,15,09,39,0.80
2007,07,15,09,40,3.00
2007,07,15,09,41,0.60
2007,07,15,09,42,1.30
2007,07,15,09,43,3.00
2007,07,15,09,44,3.00
2007,07,15,09,45,4.80
2007,07,15,09,46,0.20
2007,07,15,09,47,1.40
2007,07,15,09,48,6.20
2007,07,15,09,49,5.10
2007,07,15,09,50,2.40
2007,07,15,09,51,0.10
2007,07,15,09,52,0.50
2007,07,15,09,53,0.40
2007,07,15,09,54,0.80
2007,07,15,09,55,0.20
2007,07,15,09,56,0.80
2007,07,15,09,57,1.90
2007,07,15,09,58,0.40
2007,07,15,09,59,5.60
2007,07,15,10,00,2.90
2007,07,15,10,01,2.70
2007,07,15,10,02,0.20
2007,07,15,10,03,1.40
2007,07,15,10,04,3.10
2007,07,15,10,05,8.10
2007,07,15,10,06,6.80
2007,07,15,10,07,6.50
2007,07,15,10,08,4.90
2007,07,15,10,09,4.30
2007,07,15,10,10,0.30
2007,07,15,10,11,2.00
2007,07,15,10,12,2.10
2007,07,15,10,13,4.30
2007,07,15,10,14,3.20
2007,07,15,10,15,3.00
2007,07,15,10,16,3.50
2007,07,15,10,17,3.40
2007,07,15,10,18,3.30
2007,07,15,10,19,1.60
2007,07,15,10,20,2.30
2007,07,15,10,21,6.80
2007,07,15,10,22,2.20
2007,07,15,10,23,2.30
2007,07,15,10,24,0.50
2007,07,15,10,25,2.40
2007,07,15,10,26,0.00
2007,07,15,10,27,0.30
2007,07,15,10,28,4.00
2007,07,15,10,29,1.60
2007,07,15,10,30,1.40
2007,07,15,10,31,3.70
2007,07,15,10,32,3.90
2007,07,15,10,33,8.00
2007,07,15,10,34,3.10
2007,07,15,10,35,4.60
2007,07,15,10,36,5.50
2007,07,15,10,37,8.00
2007,07,15,10,38,6.20
2007,07,15,10,39,3.30
2007,07,15,10,40,6.40
2007,07,15,10,41,5.40
2007,07,15,10,42,5.20
2007,07,15,10,43,6.40
2007,07,15,10,44,7.40
2007,07,15,10,45,8.70
2007,07,15,10,46,7.80
2007,07,15,10,47,7.70
2007,07,15,10,48,9.90
2007,07,15,10,49,8.10
2007,07,15,10,50,9.40
2007,07,15,10,51,6.60
2007,07,15,10,52,9.10
2007,07,15,10,53,8.20
2007,07,15,10,54,9.20
2007,07,15,10,55,5.30
2007,07,15,10,56,5.30
2007,07,15,10,57,3.50
2007,07,15,10,58,8.50
2007,07,15,10,59,6.40
2007,07,15,11,00,5.30
2007,07,15,11,01,0.90
2007,07,15,11,02,0.60
2007,07,15,11,03,4.90
2007,07,15,11,04,6.20
2007,07,15,11,05,5.30
2007,07,15,11,06,1.70
2007,07,15,11,07,3.10
2007,07,15,11,08,2.30
2007,07,15,11,09,4.10
2007,07,15,11,10,6.00
2007,07,15,11,11,3.80
2007,07,15,11,12,4.90
2007,07,15,11,13,3.90
2007,07,15,11,14,2.20
2007,07,15,11,15,0.40
2007,07,15,11,16,3.00
2007,07,15,11,17,3.90
2007,07,15,11,18,2.70
2007,07,15,11,19,5.10
2007,07,15,11,20,5.30
2007,07,15,11,21,1.40
2007,07,15,11,22,3.30
2007,07,15,11,23,4.60
2007,07,15,11,24,8.10
2007,07,15,11,25,9.60
2007,07,15,11,26,8.00
2007,07,15,11,27,5.80
2007,07,15,11,28,5.50
2007,07,15,11,29,6.00
2007,07,15,11,30,3.50
2007,07,15,11,31,0.00
2007,07,15,11,32,3.60
2007,07,15,11,33,2.10
2007,07,15,11,34,0.90
2007,07,15,11,35,1.90
2007,07,15,11,36,0.40
2007,07,15,11,37,2.90
2007,07,15,11,38,3.00
2007,07,15,11,39,1.30
2007,07,15,11,40,0.00
2007,07,15,11,41,4.60
2007,07,15,11,42,3.70
2007,07,15,11,43,3.80
2007,07,15,11,44,0.60
2007,07,15,11,45,0.00
2007,07,15,11,46,2.10
2007,07,15,11,47,6.70
2007,07,15,11,48,4.10
2007,07,15,11,49,3.10
2007,07,15,11,50,3.50
2007,07,15,11,51,4.00
2007,07,15,11,52,1.90
2007,07,15,11,53,1.30
2007,07,15,11,54,1.90
2007,07,15,11,55,5.10
2007,07,15,11,56,1.50
2007,07,15,11,57,2.20
2007,07,15,11,58,1.10
2007,07,15,11,59,0.90
2007,07,15,12,00,3.10
2007,07,15,12,01,4.60
2007,07,15,12,02,4.60
2007,07,15,12,03,5.60
2007,07,15,12,04,3.70
2007,07,15,12,05,2.50
2007,07,15,12,06,1.10
2007,07,15,12,07,4.20
2007,07,15,12,08,0.60
2007,07,15,12,09,2.20
2007,07,15,12,10,2.30
2007,07,15,12,11,9.90
2007,07,15,12,12,7.40
2007,07,15,12,13,7.40
2007,07,15,12,14,5.10
2007,07,15,12,15,10.80
2007,07,15,12,16,10.60
2007,07,15,12,17,10.80
2007,07,15,12,18,6.50
2007,07,15,12,19,8.60
2007,07,15,12,20,9.60
2007,07,15,12,21,11.30
2007,07,15,12,22,10.10
2007,07,15,12,23,10.00
2007,07,15,12,24,10.10
2007,07,15,12,25,13.90
2007,07,15,12,26,12.50
2007,07,15,12,27,12.40
2007,07,15,12,28,10.60
2007,07,15,12,29,9.60
2007,07,15,12,30,7.10
2007,07,15,12,31,9.70
2007,07,15,12,32,6.00
2007,07,15,12,33,2.10
2007,07,15,12,34,4.40
2007,07,15,12,35,6.10
2007,07,15,12,36,7.30
2007,07,15,12,37,5.40
2007,07,15,12,38,3.70
2007,07,15,12,39,10.60
2007,07,15,12,40,12.30
2007,07,15,12,41,9.50
2007,07,15,12,42,6.90
2007,07,15,12,43,8.50
2007,07,15,12,44,7.80
2007,07,15,12,45,7.30
2007,07,15,12,46,5.60
2007,07,15,12,47,3.10
2007,07,15,12,48,3.60
2007,07,15,12,49,11.30
2007,07,15,12,50,8.80
2007,07,15,12,51,8.80
2007,07,15,12,52,7.20
2007,07,15,12,53,4.40
2007,07,15,12,54,9.90
2007,07,15,12,55,10.80
2007,07,15,12,56,8.70
2007,07,15,12,57,9.60
2007,07,15,12,58,9.70
2007,07,15,12,59,9.70
2007,07,15,13,00,14.10
2007,07,15,13,01,12.20
2007,07,15,13,02,8.60
2007,07,15,13,03,8.10
2007,07,15,13,04,4.00
2007,07,15,13,05,4.10
2007,07,15,13,06,4.30
2007,07,15,13,07,7.50
2007,07,15,13,08,3.70
2007,07,15,13,09,9.10
2007,07,15,13,10,8.00
2007,07,15,13,11,10.00
2007,07,15,13,12,9.80
2007,07,15,13,13,11.60
2007,07,15,13,14,9.90
2007,07,15,13,15,11.90
2007,07,15,13,16,10.10
2007,07,15,13,17,16.40
2007,07,15,13,18,9.90
2007,07,15,13,19,15.60
2007,07,15,13,20,25.60
2007,07,15,13,21,18.30
2007,07,15,13,22,12.30
2007,07,15,13,23,11.00
2007,07,15,13,24,10.70
2007,07,15,13,25,14.20
2007,07,15,13,26,14.40
2007,07,15,13,27,9.40
2007,07,15,13,28,15.30
2007,07,15,13,29,20.40
2007,07,15,13,30,22.00
2007,07,15,13,31,23.30
2007,07,15,13,32,15.80
2007,07,15,13,33,18.30
2007,07,15,13,34,23.00
2007,07,15,13,35,18.30
2007,07,15,13,36,16.90
2007,07,15,13,37,16.90
2007,07,15,13,38,10.90
2007,07,15,13,39,14.20
2007,07,15,13,40,17.60
2007,07,15,13,41,14.10
2007,07,15,13,42,21.60
2007,07,15,13,43,20.60
2007,07,15,13,44,13.50
2007,07,15,13,45,12.60
2007,07,15,13,46,19.60
2007,07,15,13,47,18.10
2007,07,15,13,48,10.50
2007,07,15,13,49,8.60
2007,07,15,13,50,10.90
2007,07,15,13,51,14.00
2007,07,15,13,52,14.60
2007,07,15,13,53,11.40
2007,07,15,13,54,10.80
2007,07,15,13,55,9.60
2007,07,15,13,56,11.40
2007,07,15,13,57,10.70
2007,07,15,13,58,9.30
2007,07,15,13,59,10.70
2007,07,15,14,00,16.30
2007,07,15,14,01,17.50
2007,07,15,14,02,11.80
2007,07,15,14,03,11.70
2007,07,15,14,04,13.60
2007,07,15,14,05,8.40
2007,07,15,14,06,11.40
2007,07,15,14,07,8.30
2007,07,15,14,08,12.20
2007,07,15,14,09,12.40
2007,07,15,14,10,12.90
2007,07,15,14,11,10.90
2007,07,15,14,12,15.00
2007,07,15,14,13,20.00
2007,07,15,14,14,19.30
2007,07,15,14,15,17.30
2007,07,15,14,16,12.40
2007,07,15,14,17,16.30
2007,07,15,14,18,11.90
2007,07,15,14,19,11.00
2007,07,15,14,20,8.10
2007,07,15,14,21,8.90
2007,07,15,14,22,9.60
2007,07,15,14,23,14.90
2007,07,15,14,24,9.30
2007,07,15,14,25,10.30
2007,07,15,14,26,11.60
2007,07,15,14,27,11.50
2007,07,15,14,28,13.80
2007,07,15,14,29,10.40
2007,07,15,14,30,12.10
2007,07,15,14,31,9.20
2007,07,15,14,32,9.00
2007,07,15,14,33,12.60
2007,07,15,14,34,13.60
2007,07,15,14,35,9.30
2007,07,15,14,36,14.70
2007,07,15,14,37,9.50
2007,07,15,14,38,14.00
2007,07,15,14,39,10.50
2007,07,15,14,40,8.50
2007,07,15,14,41,6.90
2007,07,15,14,42,8.90
2007,07,15,14,43,6.00
2007,07,15,14,44,6.80
2007,07,15,14,45,10.50
2007,07,15,14,46,5.30
2007,07,15,14,47,10.60
2007,07,15,14,48,8.50
2007,07,15,14,49,3.80
2007,07,15,14,50,12.20
2007,07,15,14,51,12.20
2007,07,15,14,52,12.60
2007,07,15,14,53,6.90
2007,07,15,14,54,9.40
2007,07,15,14,55,8.30
2007,07,15,14,56,13.80
2007,07,15,14,57,6.00
2007,07,15,14,58,13.70
2007,07,15,14,59,12.90
2007,07,15,15,00,10.70
2007,07,15,15,01,6.40
2007,07,15,15,02,11.30
2007,07,15,15,03,5.60
2007,07,15,15,04,5.80
2007,07,15,15,05,5.80
2007,07,15,15,06,4.80
2007,07,15,15,07,11.60
2007,07,15,15,08,5.60
2007,07,15,15,09,5.60
2007,07,15,15,10,7.30
2007,07,15,15,11,7.60
2007,07,15,15,12,9.30
2007,07,15,15,13,8.20
2007,07,15,15,14,6.20
2007,07,15,15,15,7.50
2007,07,15,15,16,13.30
2007,07,15,15,17,10.90
2007,07,15,15,18,14.60
2007,07,15,15,19,14.00
2007,07,15,15,20,13.40
2007,07,15,15,21,7.70
2007,07,15,15,22,10.50
2007,07,15,15,23,9.60
2007,07,15,15,24,7.80
2007,07,15,15,25,3.30
2007,07,15,15,26,5.60
2007,07,15,15,27,8.70
2007,07,15,15,28,6.80
2007,07,15,15,29,9.00
2007,07,15,15,30,7.40
2007,07,15,15,31,5.70
2007,07,15,15,32,3.60
2007,07,15,15,33,7.20
2007,07,15,15,34,8.60
2007,07,15,15,35,8.20
2007,07,15,15,36,5.20
2007,07,15,15,37,9.60
2007,07,15,15,38,7.60
2007,07,15,15,39,8.60
2007,07,15,15,40,10.20
2007,07,15,15,41,13.30
2007,07,15,15,42,11.80
2007,07,15,15,43,18.70
2007,07,15,15,44,7.60
2007,07,15,15,45,6.90
2007,07,15,15,46,7.60
2007,07,15,15,47,7.50
2007,07,15,15,48,9.10
2007,07,15,15,49,9.80
2007,07,15,15,50,9.90
2007,07,15,15,51,8.50
2007,07,15,15,52,5.30
2007,07,15,15,53,4.20
2007,07,15,15,54,8.00
2007,07,15,15,55,6.60
2007,07,15,15,56,9.60
2007,07,15,15,57,11.80
2007,07,15,15,58,8.80
2007,07,15,15,59,2.70
2007,07,15,16,00,7.90
2007,07,15,16,01,7.40
2007,07,15,16,02,5.30
2007,07,15,16,03,7.40
2007,07,15,16,04,12.20
2007,07,15,16,05,9.50
2007,07,15,16,06,3.90
2007,07,15,16,07,5.70
2007,07,15,16,08,10.30
2007,07,15,16,09,11.80
2007,07,15,16,10,15.70
2007,07,15,16,11,9.40
2007,07,15,16,12,11.10
2007,07,15,16,13,8.80
2007,07,15,16,14,8.00
2007,07,15,16,15,4.70
2007,07,15,16,16,4.50
2007,07,15,16,17,2.70
2007,07,15,16,18,4.60
2007,07,15,16,19,2.30
2007,07,15,16,20,6.00
2007,07,15,16,21,10.10
2007,07,15,16,22,3.60
2007,07,15,16,23,5.10
2007,07,15,16,24,8.50
2007,07,15,16,25,10.30
2007,07,15,16,26,11.50
2007,07,15,16,27,9.50
2007,07,15,16,28,7.60
2007,07,15,16,29,7.90
2007,07,15,16,30,9.70
2007,07,15,16,31,9.40
2007,07,15,16,32,5.40
2007,07,15,16,33,8.00
2007,07,15,16,34,7.80
2007,07,15,16,35,9.90
2007,07,15,16,36,10.70
2007,07,15,16,37,6.60
2007,07,15,16,38,6.90
2007,07,15,16,39,11.30
2007,07,15,16,40,9.30
2007,07,15,16,41,1.30
2007,07,15,16,42,1.90
2007,07,15,16,43,5.60
2007,07,15,16,44,8.90
2007,07,15,16,45,5.20
2007,07,15,16,46,8.10
2007,07,15,16,47,6.70
2007,07,15,16,48,6.80
2007,07,15,16,49,13.60
2007,07,15,16,50,8.50
2007,07,15,16,51,6.60
2007,07,15,16,52,7.60
2007,07,15,16,53,8.50
2007,07,15,16,54,6.40
2007,07,15,16,55,6.80
2007,07,15,16,56,4.40
2007,07,15,16,57,2.60
2007,07,15,16,58,9.20
2007,07,15,16,59,13.10
2007,07,15,17,00,9.30
2007,07,15,17,01,11.70
2007,07,15,17,02,10.90
2007,07,15,17,03,10.30
2007,07,15,17,04,3.10
2007,07,15,17,05,7.70
2007,07,15,17,06,7.30
2007,07,15,17,07,1.70
2007,07,15,17,08,3.80
2007,07,15,17,09,5.00
2007,07,15,17,10,6.50
2007,07,15,17,11,15.00
2007,07,15,17,12,7.90
2007,07,15,17,13,10.20
2007,07,15,17,14,6.00
2007,07,15,17,15,6.80
2007,07,15,17,16,6.60
2007,07,15,17,17,3.00
2007,07,15,17,18,7.20
2007,07,15,17,19,10.30
2007,07,15,17,20,11.60
2007,07,15,17,21,10.70
2007,07,15,17,22,12.60
2007,07,15,17,23,12.10
2007,07,15,17,24,13.90
2007,07,15,17,25,11.80
2007,07,15,17,26,9.30
2007,07,15,17,27,6.80
2007,07,15,17,28,10.50
2007,07,15,17,29,8.00
2007,07,15,17,30,10.20
2007,07,15,17,31,9.90
2007,07,15,17,32,12.50
2007,07,15,17,33,9.20
2007,07,15,17,34,17.70
2007,07,15,17,35,11.70
2007,07,15,17,36,11.60
2007,07,15,17,37,19.90
2007,07,15,17,38,11.30
2007,07,15,17,39,11.00
2007,07,15,17,40,14.60
2007,07,15,17,41,14.80
2007,07,15,17,42,14.60
2007,07,15,17,43,12.40
2007,07,15,17,44,6.80
2007,07,15,17,45,12.80
2007,07,15,17,46,8.10
2007,07,15,17,47,7.00
2007,07,15,17,48,3.00
2007,07,15,17,49,3.00
2007,07,15,17,50,8.30
2007,07,15,17,51,18.40
2007,07,15,17,52,14.60
2007,07,15,17,53,12.50
2007,07,15,17,54,7.90
2007,07,15,17,55,9.50
2007,07,15,17,56,11.00
2007,07,15,17,57,10.10
2007,07,15,17,58,12.30
2007,07,15,17,59,10.10
2007,07,15,18,00,6.40
2007,07,15,18,01,3.90
2007,07,15,18,02,6.80
2007,07,15,18,03,9.80
2007,07,15,18,04,11.00
2007,07,15,18,05,10.20
2007,07,15,18,06,9.30
2007,07,15,18,07,9.50
2007,07,15,18,08,8.70
2007,07,15,18,09,4.30
2007,07,15,18,10,6.70
2007,07,15,18,11,6.10
2007,07,15,18,12,5.80
2007,07,15,18,13,1.60
2007,07,15,18,14,3.80
2007,07,15,18,15,7.30
2007,07,15,18,16,6.70
2007,07,15,18,17,8.60
2007,07,15,18,18,9.70
2007,07,15,18,19,4.40
2007,07,15,18,20,6.10
2007,07,15,18,21,5.70
2007,07,15,18,22,3.10
2007,07,15,18,23,5.90
2007,07,15,18,24,2.80
2007,07,15,18,25,1.60
2007,07,15,18,26,3.90
2007,07,15,18,27,5.60
2007,07,15,18,28,6.40
2007,07,15,18,29,8.30
2007,07,15,18,30,11.40
2007,07,15,18,31,9.30
2007,07,15,18,32,8.90
2007,07,15,18,33,9.50
2007,07,15,18,34,6.80
2007,07,15,18,35,8.90
2007,07,15,18,36,3.60
2007,07,15,18,37,5.60
2007,07,15,18,38,11.30
2007,07,15,18,39,9.30
2007,07,15,18,40,6.20
2007,07,15,18,41,7.10
2007,07,15,18,42,3.90
2007,07,15,18,43,9.30
2007,07,15,18,44,8.40
2007,07,15,18,45,6.00
2007,07,15,18,46,5.60
2007,07,15,18,47,10.30
2007,07,15,18,48,7.60